NAY83 GCRR-GCXO

Flight info

Callsign NAY83
Flight time 0h 43m
Altitude 12000
Route LARYS
Aircraft AT76/M-SDFGRY/LB1

Departure

Time 2026-04-25 20:01
Airport César Manrique-Lanzarote Airport (GCRR)

Arrival

Time 2026-04-25 20:45
Airport Tenerife Norte-Ciudad de La Laguna Airport (GCXO)
Time Latitude Longitude Altitude Speed Heading
2026-04-25 19:24 28.95252 -13.60567 47 ft 0 kts 296°
2026-04-25 19:55 28.95252 -13.60566 47 ft 2 kts 296°
2026-04-25 19:56 28.95234 -13.60519 45 ft 10 kts 283°
2026-04-25 19:56 28.95255 -13.60477 45 ft 1 kts 200°
2026-04-25 19:56 28.95204 -13.60499 47 ft 12 kts 204°
2026-04-25 19:56 28.95124 -13.60476 47 ft 15 kts 115°
2026-04-25 19:57 28.95040 -13.60443 46 ft 16 kts 207°
2026-04-25 19:57 28.94933 -13.60506 45 ft 20 kts 207°
2026-04-25 19:57 28.94807 -13.60582 44 ft 21 kts 207°
2026-04-25 19:57 28.94674 -13.60656 45 ft 23 kts 206°
2026-04-25 19:58 28.94518 -13.60747 34 ft 28 kts 207°
2026-04-25 19:58 28.94346 -13.60846 26 ft 28 kts 207°
2026-04-25 19:58 28.94189 -13.60936 24 ft 25 kts 207°
2026-04-25 19:58 28.94030 -13.61030 23 ft 26 kts 208°
2026-04-25 19:59 28.93869 -13.61122 20 ft 26 kts 207°
2026-04-25 19:59 28.93708 -13.61214 21 ft 23 kts 204°
2026-04-25 19:59 28.93641 -13.61189 20 ft 17 kts 122°
2026-04-25 19:59 28.93606 -13.61064 20 ft 5 kts 33°
2026-04-25 20:00 28.93611 -13.61061 20 ft 0 kts 25°
2026-04-25 20:00 28.93740 -13.60989 22 ft 50 kts 27°
2026-04-25 20:01 28.94922 -13.60302 317 ft 115 kts 24°
2026-04-25 20:01 28.95377 -13.59981 708 ft 116 kts 28°
2026-04-25 20:01 28.96028 -13.59455 1179 ft 120 kts 31°
2026-04-25 20:02 28.96695 -13.58909 1658 ft 114 kts 28°
2026-04-25 20:02 28.97354 -13.58316 1864 ft 125 kts 34°
2026-04-25 20:02 28.98031 -13.57645 2082 ft 132 kts 35°
2026-04-25 20:02 28.98726 -13.56939 2278 ft 141 kts 36°
2026-04-25 20:03 28.99499 -13.56146 2414 ft 154 kts 36°
2026-04-25 20:03 29.00153 -13.55469 2701 ft 158 kts 37°
2026-04-25 20:03 29.00966 -13.54586 2975 ft 165 kts 41°
2026-04-25 20:03 29.01772 -13.53644 3342 ft 164 kts 39°
2026-04-25 20:04 29.02544 -13.52704 3761 ft 163 kts 41°
2026-04-25 20:04 29.03490 -13.52020 3983 ft 164 kts
2026-04-25 20:04 29.04588 -13.52259 4313 ft 167 kts 332°
2026-04-25 20:04 29.05371 -13.53281 4560 ft 180 kts 297°
2026-04-25 20:05 29.05516 -13.54710 4967 ft 186 kts 267°
2026-04-25 20:05 29.05138 -13.56118 5333 ft 185 kts 259°
2026-04-25 20:05 29.04755 -13.57544 5552 ft 191 kts 259°
2026-04-25 20:05 29.04449 -13.59011 5883 ft 190 kts 262°
2026-04-25 20:06 29.04197 -13.60526 6147 ft 191 kts 263°
2026-04-25 20:06 29.03995 -13.62002 6509 ft 190 kts 265°
2026-04-25 20:06 29.03822 -13.63514 6769 ft 192 kts 264°
2026-04-25 20:06 29.03638 -13.65025 7083 ft 192 kts 266°
2026-04-25 20:07 29.03474 -13.66537 7370 ft 192 kts 265°
2026-04-25 20:07 29.03303 -13.68054 7655 ft 193 kts 265°
2026-04-25 20:07 29.03106 -13.69568 7974 ft 192 kts 266°
2026-04-25 20:07 29.02897 -13.71075 8287 ft 192 kts 265°
2026-04-25 20:08 29.02691 -13.72560 8565 ft 192 kts 264°
2026-04-25 20:08 29.02483 -13.74090 8871 ft 192 kts 265°
2026-04-25 20:08 29.02284 -13.75586 9130 ft 194 kts 264°
2026-04-25 20:08 29.02066 -13.77099 9444 ft 192 kts 264°
2026-04-25 20:09 29.01847 -13.78627 9699 ft 194 kts 264°
2026-04-25 20:09 29.01642 -13.80154 9978 ft 194 kts 264°
2026-04-25 20:09 29.01435 -13.81684 10191 ft 195 kts 264°
2026-04-25 20:09 29.01231 -13.83218 10432 ft 196 kts 264°
2026-04-25 20:10 29.01023 -13.84729 10724 ft 193 kts 265°
2026-04-25 20:10 29.00805 -13.86242 10927 ft 195 kts 264°
2026-04-25 20:10 29.00592 -13.87784 11101 ft 197 kts 266°
2026-04-25 20:10 29.00377 -13.89322 11344 ft 197 kts 266°
2026-04-25 20:11 29.00163 -13.90851 11599 ft 194 kts 266°
2026-04-25 20:11 28.99952 -13.92381 11817 ft 195 kts 266°
2026-04-25 20:11 28.99743 -13.93931 11946 ft 200 kts 265°
2026-04-25 20:11 28.99539 -13.95537 12005 ft 209 kts 266°
2026-04-25 20:12 28.99321 -13.97207 12036 ft 217 kts 265°
2026-04-25 20:12 28.99097 -13.98942 12056 ft 224 kts 265°
2026-04-25 20:12 28.98867 -14.00733 12065 ft 232 kts 264°
2026-04-25 20:12 28.98693 -14.01969 12062 ft 235 kts 263°
2026-04-25 20:13 28.98346 -14.04441 12069 ft 240 kts 265°
2026-04-25 20:13 28.98086 -14.06336 12064 ft 243 kts 264°
2026-04-25 20:13 28.97819 -14.08251 12061 ft 245 kts 264°
2026-04-25 20:13 28.97554 -14.10186 12067 ft 247 kts 265°
2026-04-25 20:14 28.97289 -14.12126 12061 ft 248 kts 263°
2026-04-25 20:14 28.97015 -14.14073 12059 ft 248 kts 264°
2026-04-25 20:14 28.96739 -14.16018 12058 ft 249 kts 264°
2026-04-25 20:14 28.96465 -14.17973 12058 ft 250 kts 263°
2026-04-25 20:15 28.96178 -14.19930 12062 ft 250 kts 265°
2026-04-25 20:15 28.95891 -14.21885 12067 ft 250 kts 264°
2026-04-25 20:15 28.95609 -14.23842 12066 ft 250 kts 264°
2026-04-25 20:15 28.95332 -14.25798 12066 ft 250 kts 265°
2026-04-25 20:16 28.95056 -14.27757 12066 ft 250 kts 264°
2026-04-25 20:16 28.94785 -14.29718 12067 ft 250 kts 264°
2026-04-25 20:16 28.94557 -14.31354 12066 ft 250 kts 264°
2026-04-25 20:16 28.94293 -14.33319 12067 ft 251 kts 264°
2026-04-25 20:17 28.94037 -14.35262 12066 ft 251 kts 264°
2026-04-25 20:17 28.93765 -14.37232 12070 ft 251 kts 264°
2026-04-25 20:17 28.93495 -14.39203 12082 ft 251 kts 264°
2026-04-25 20:17 28.93221 -14.41175 12076 ft 251 kts 265°
2026-04-25 20:18 28.92951 -14.43140 12066 ft 251 kts 264°
2026-04-25 20:18 28.92677 -14.45107 12068 ft 251 kts 264°
2026-04-25 20:18 28.92393 -14.47071 12068 ft 251 kts 264°
2026-04-25 20:18 28.92114 -14.49037 12071 ft 251 kts 264°
2026-04-25 20:19 28.91837 -14.51004 12072 ft 251 kts 264°
2026-04-25 20:19 28.91559 -14.52975 12073 ft 251 kts 264°
2026-04-25 20:19 28.91282 -14.54942 12073 ft 251 kts 265°
2026-04-25 20:19 28.91001 -14.56908 12073 ft 251 kts 264°
2026-04-25 20:20 28.90724 -14.58874 12071 ft 251 kts 264°
2026-04-25 20:20 28.90448 -14.60845 12070 ft 252 kts 264°
2026-04-25 20:20 28.90164 -14.62813 12072 ft 252 kts 264°
2026-04-25 20:20 28.89885 -14.64789 12082 ft 252 kts 264°
2026-04-25 20:21 28.89601 -14.66767 12075 ft 253 kts 264°
2026-04-25 20:21 28.89314 -14.68748 12076 ft 253 kts 263°
2026-04-25 20:21 28.89031 -14.70727 12075 ft 253 kts 264°
2026-04-25 20:21 28.88748 -14.72706 12076 ft 253 kts 264°
2026-04-25 20:22 28.88468 -14.74687 12070 ft 253 kts 264°
2026-04-25 20:22 28.88371 -14.75355 12081 ft 253 kts 264°
2026-04-25 20:22 28.87896 -14.78648 12077 ft 253 kts 263°
2026-04-25 20:22 28.87604 -14.80627 12081 ft 253 kts 261°
2026-04-25 20:23 28.87051 -14.82531 12074 ft 254 kts 252°
2026-04-25 20:23 28.86403 -14.84406 12075 ft 254 kts 252°
2026-04-25 20:23 28.85714 -14.86272 12078 ft 256 kts 249°
2026-04-25 20:23 28.84878 -14.88073 12077 ft 258 kts 243°
2026-04-25 20:24 28.83956 -14.89829 12078 ft 258 kts 242°
2026-04-25 20:24 28.83008 -14.91570 12084 ft 258 kts 242°
2026-04-25 20:24 28.82064 -14.93316 12083 ft 258 kts 242°
2026-04-25 20:24 28.81142 -14.95075 12067 ft 259 kts 243°
2026-04-25 20:25 28.80225 -14.96847 12075 ft 260 kts 243°
2026-04-25 20:25 28.79307 -14.98622 12078 ft 260 kts 243°
2026-04-25 20:25 28.78546 -15.00100 12078 ft 260 kts 243°
2026-04-25 20:25 28.77626 -15.01877 12074 ft 260 kts 243°
2026-04-25 20:26 28.76702 -15.03654 12079 ft 261 kts 243°
2026-04-25 20:26 28.75781 -15.05434 12082 ft 261 kts 243°
2026-04-25 20:26 28.74858 -15.07215 12076 ft 261 kts 243°
2026-04-25 20:26 28.73935 -15.08998 12071 ft 261 kts 243°
2026-04-25 20:27 28.73011 -15.10777 12074 ft 261 kts 243°
2026-04-25 20:27 28.72084 -15.12568 11947 ft 266 kts 243°
2026-04-25 20:27 28.71123 -15.14417 11676 ft 275 kts 242°
2026-04-25 20:27 28.70143 -15.16309 11460 ft 280 kts 243°
2026-04-25 20:28 28.69144 -15.18229 11270 ft 282 kts 242°
2026-04-25 20:28 28.68159 -15.20125 11170 ft 275 kts 242°
2026-04-25 20:28 28.67191 -15.21983 11062 ft 271 kts 242°
2026-04-25 20:28 28.66242 -15.23816 10945 ft 266 kts 244°
2026-04-25 20:29 28.65623 -15.25741 10818 ft 263 kts 258°
2026-04-25 20:29 28.65151 -15.27804 10689 ft 268 kts 258°
2026-04-25 20:29 28.64660 -15.29827 10562 ft 270 kts 256°
2026-04-25 20:29 28.64085 -15.31844 10433 ft 267 kts 253°
2026-04-25 20:30 28.63471 -15.33823 10305 ft 264 kts 253°
2026-04-25 20:30 28.62859 -15.35788 10178 ft 262 kts 253°
2026-04-25 20:30 28.62444 -15.37106 10097 ft 261 kts 253°
2026-04-25 20:30 28.62020 -15.38459 10013 ft 260 kts 253°
2026-04-25 20:31 28.61425 -15.40397 9877 ft 259 kts 254°
2026-04-25 20:31 28.60834 -15.42357 9741 ft 264 kts 254°
2026-04-25 20:31 28.60234 -15.44343 9588 ft 268 kts 254°
2026-04-25 20:31 28.59628 -15.46361 9460 ft 271 kts 253°
2026-04-25 20:32 28.59007 -15.48399 9315 ft 273 kts 253°
2026-04-25 20:32 28.58594 -15.49774 9206 ft 270 kts 254°
2026-04-25 20:32 28.57794 -15.52412 9030 ft 263 kts 254°
2026-04-25 20:32 28.57207 -15.54364 8891 ft 259 kts 253°
2026-04-25 20:33 28.56619 -15.56305 8758 ft 261 kts 253°
2026-04-25 20:33 28.56022 -15.58267 8627 ft 264 kts 253°
2026-04-25 20:33 28.55420 -15.60246 8487 ft 266 kts 254°
2026-04-25 20:33 28.55215 -15.60919 8448 ft 265 kts 253°
2026-04-25 20:34 28.54244 -15.64160 8221 ft 257 kts 255°
2026-04-25 20:34 28.53677 -15.66075 8088 ft 254 kts 254°
2026-04-25 20:34 28.53118 -15.67967 7957 ft 251 kts 254°
2026-04-25 20:34 28.52559 -15.69839 7828 ft 249 kts 253°
2026-04-25 20:35 28.51991 -15.71697 7711 ft 250 kts 253°
2026-04-25 20:35 28.51405 -15.73596 7584 ft 259 kts 253°
2026-04-25 20:35 28.50801 -15.75545 7456 ft 264 kts 253°
2026-04-25 20:35 28.50189 -15.77532 7324 ft 268 kts 253°
2026-04-25 20:36 28.49575 -15.79541 7200 ft 267 kts 254°
2026-04-25 20:36 28.48985 -15.81488 7066 ft 255 kts 253°
2026-04-25 20:36 28.48416 -15.83357 6947 ft 246 kts 253°
2026-04-25 20:36 28.47856 -15.85169 6818 ft 240 kts 253°
2026-04-25 20:37 28.47308 -15.86934 6692 ft 234 kts 253°
2026-04-25 20:37 28.46775 -15.88667 6576 ft 230 kts 254°
2026-04-25 20:37 28.46254 -15.90371 6458 ft 227 kts 254°
2026-04-25 20:37 28.45732 -15.92085 6335 ft 235 kts 253°
2026-04-25 20:38 28.45178 -15.93893 6216 ft 248 kts 253°
2026-04-25 20:38 28.44613 -15.95757 6081 ft 257 kts 253°
2026-04-25 20:38 28.44021 -15.97715 5938 ft 257 kts 254°
2026-04-25 20:38 28.43461 -15.99591 5824 ft 251 kts 254°
2026-04-25 20:39 28.43002 -16.01145 5709 ft 248 kts 254°
2026-04-25 20:39 28.42441 -16.03009 5584 ft 252 kts 253°
2026-04-25 20:39 28.41868 -16.04904 5466 ft 255 kts 253°
2026-04-25 20:39 28.41675 -16.05549 5422 ft 254 kts 254°
2026-04-25 20:40 28.40756 -16.08676 5230 ft 249 kts 254°
2026-04-25 20:40 28.40532 -16.10557 5056 ft 238 kts 282°
2026-04-25 20:40 28.40959 -16.12352 4905 ft 235 kts 292°
2026-04-25 20:40 28.41556 -16.14082 4767 ft 235 kts 295°
2026-04-25 20:41 28.42178 -16.15797 4639 ft 235 kts 295°
2026-04-25 20:41 28.42756 -16.17506 4516 ft 226 kts 294°
2026-04-25 20:41 28.43278 -16.19137 4406 ft 208 kts 293°
2026-04-25 20:41 28.43750 -16.20612 4284 ft 194 kts 294°
2026-04-25 20:42 28.44218 -16.21986 4024 ft 180 kts 295°
2026-04-25 20:42 28.44643 -16.23257 3807 ft 164 kts 295°
2026-04-25 20:42 28.45027 -16.24425 3590 ft 152 kts 295°
2026-04-25 20:42 28.45383 -16.25503 3413 ft 141 kts 295°
2026-04-25 20:43 28.45720 -16.26526 3219 ft 135 kts 296°
2026-04-25 20:43 28.46045 -16.27510 3002 ft 135 kts 296°
2026-04-25 20:43 28.46368 -16.28475 2869 ft 129 kts 296°
2026-04-25 20:43 28.46690 -16.29406 2689 ft 126 kts 295°
2026-04-25 20:44 28.46998 -16.30333 2490 ft 125 kts 293°
2026-04-25 20:44 28.47303 -16.31251 2311 ft 124 kts 291°
2026-04-25 20:44 28.47603 -16.32152 2154 ft 121 kts 291°
2026-04-25 20:44 28.47891 -16.33033 2031 ft 114 kts 292°
2026-04-25 20:45 28.48127 -16.33730 2038 ft 57 kts 290°
2026-04-25 20:45 28.48193 -16.33933 2047 ft 24 kts 290°
2026-04-25 20:45 28.48243 -16.34078 2048 ft 15 kts 300°
2026-04-25 20:45 28.48296 -16.34139 2047 ft 8 kts 320°
2026-04-25 20:46 28.48353 -16.34193 2048 ft 15 kts 320°
2026-04-25 20:46 28.48411 -16.34252 2050 ft 8 kts 308°
2026-04-25 20:46 28.48434 -16.34311 2052 ft 8 kts 290°
2026-04-25 20:46 28.48450 -16.34361 2054 ft 9 kts 291°
2026-04-25 20:47 28.48480 -16.34447 2057 ft 14 kts 291°
2026-04-25 20:47 28.48519 -16.34565 2063 ft 17 kts 291°
2026-04-25 20:47 28.48563 -16.34634 2066 ft 7 kts
2026-04-25 20:47 28.48616 -16.34614 2066 ft 8 kts 23°
2026-04-25 20:48 28.48644 -16.34601 2065 ft 3 kts 21°
2026-04-25 20:48 28.48656 -16.34596 2065 ft 0 kts 21°